Mazatlan Airport, Mexico

8:38 PM MDT on June 22, 2017 (GMT -0600)
Gen Rafael Buelna International

Weather History for MMMZ - September, 2013

Change the Weather History Date:

Thursday, September 26, 2013

  Actual Average Record
Temperature  
Mean Temperature 82 °F -  
Max Temperature 90 °F 86 °F 93 °F (2002)
Min Temperature 75 °F 73 °F 35 °F (1999)
Cooling Degree Days 18    
Growing Degree Days 32 (Base 50)    
Moisture  
Dew Point 74 °F    
Average Humidity 84    
Maximum Humidity 94    
Minimum Humidity 56    
Precipitation  
Precipitation 0.00 in - - ()
Sea Level Pressure  
Sea Level Pressure 29.76 in    
Wind  
Wind Speed 6 mph ()    
Max Wind Speed 9 mph    
Max Gust Speed -    
Visibility 11.1 miles    
Events Rain , Thunderstorm    
Averages and records for this station are not official NWS values.
T = Trace of Precipitation, MM = Missing Value Source: Averaged Metar Reports

Daily Weather History Graph

Daily Weather History Graph

Search for Another Location

Airport or City:

Trip Planner

Search our weather history database for the weather conditions in past years. The results will help you decide how hot, cold, wet, or windy it might be!

Date:

Astronomy

Sep. 26, 2013 Rise Set
Actual Time 6:55 AM MDT 6:57 PM MDT
Civil Twilight 6:32 AM MDT 7:19 PM MDT
Nautical Twilight 6:06 AM MDT 7:45 PM MDT
Astronomical Twilight 5:40 AM MDT 8:11 PM MDT
Moon No Moon Rise 1:15 PM MDT (9/26)
Length of Visible Light 12h 46m
Length of Day
12h 01m
Waning Gibbous, 54% of the Moon is Illuminated
Sep 26
Waning Gibbous
Sep 26
Last Quarter
Oct 4
New
Oct 11
First Quarter
Oct 18
Full

Hourly Weather History & Observations

Time (MDT) Temp. Heat Index Dew Point Humidity Pressure Visibility Wind Dir Wind Speed Gust Speed Precip Events Conditions
12:10 AM 80.6 °F 88.1 °F 78.8 °F 94% 29.75 in 10.0 mi ESE 8.1 mph - N/A Thunderstorm Thunderstorm
12:41 AM 78.8 °F - 77.0 °F 94% 29.75 in 8.0 mi East 8.1 mph - N/A Rain , Thunderstorm Light Thunderstorms and Rain
1:42 AM 75.2 °F - 71.6 °F 89% 29.74 in 10.0 mi ESE 8.1 mph - N/A   Overcast
2:41 AM 75.2 °F - 73.4 °F 94% 29.74 in 10.0 mi East 6.9 mph - N/A   Overcast
3:42 AM 75.2 °F - 73.4 °F 94% 29.71 in 10.0 mi North 6.9 mph - N/A   Overcast
4:42 AM 75.2 °F - 73.4 °F 94% 29.71 in 10.0 mi North 5.8 mph - N/A   Overcast
5:44 AM 75.2 °F - 73.4 °F 94% 29.72 in 10.0 mi NE 5.8 mph - N/A   Overcast
6:45 AM 75.2 °F - 71.6 °F 89% 29.73 in 10.0 mi NNE 6.9 mph - N/A   Mostly Cloudy
7:41 AM 77.0 °F - 73.4 °F 89% 29.74 in 10.0 mi Calm Calm - N/A   Mostly Cloudy
8:50 AM 77.0 °F - 73.4 °F 89% 29.77 in 10.0 mi ESE 3.5 mph - N/A   Mostly Cloudy
9:51 AM 80.6 °F 85.4 °F 73.4 °F 79% 29.78 in 10.0 mi ESE 5.8 mph - N/A   Mostly Cloudy
10:44 AM 82.4 °F 89.5 °F 75.2 °F 79% 29.80 in 10.0 mi SE 5.8 mph - N/A   Mostly Cloudy
11:50 AM 84.2 °F 92.3 °F 75.2 °F 74% 29.80 in 12.0 mi SSW 8.1 mph - N/A   Mostly Cloudy
12:48 PM 84.2 °F 92.3 °F 75.2 °F 74% 29.78 in 12.0 mi South 8.1 mph - N/A   Mostly Cloudy
1:45 PM 84.2 °F 92.3 °F 75.2 °F 74% 29.75 in 12.0 mi SSW 8.1 mph - N/A   Mostly Cloudy
2:40 PM 84.2 °F 92.3 °F 75.2 °F 74% 29.75 in 15.0 mi South 9.2 mph - N/A   Mostly Cloudy
3:00 PM 90 °F - 76 °F 56% 29.76 in - SSE 6.7 mph - -  
3:44 PM 86.0 °F 95.1 °F 75.2 °F 70% 29.72 in 15.0 mi SSW 6.9 mph - N/A   Mostly Cloudy
4:46 PM 84.2 °F 92.3 °F 75.2 °F 74% 29.71 in 15.0 mi SW 5.8 mph - N/A   Scattered Clouds
5:48 PM 84.2 °F 92.3 °F 75.2 °F 74% 29.74 in 15.0 mi SW 8.1 mph - N/A   Scattered Clouds
6:41 PM 80.6 °F 86.2 °F 75.2 °F 84% 29.75 in 14.0 mi WSW 8.1 mph - N/A   Mostly Cloudy
7:41 PM 80.6 °F 86.2 °F 75.2 °F 84% 29.76 in 10.0 mi West 5.8 mph - N/A   Mostly Cloudy
8:44 PM 78.8 °F - 73.4 °F 83% 29.78 in 10.0 mi NNE 6.9 mph - N/A   Mostly Cloudy
9:52 PM 75.2 °F - 73.4 °F 94% 29.79 in 10.0 mi ENE 9.2 mph - N/A   Mostly Cloudy
10:46 PM 75.2 °F - 73.4 °F 94% 29.80 in 10.0 mi NE 6.9 mph - N/A   Mostly Cloudy
11:44 PM 75.2 °F - 73.4 °F 94% 29.80 in 10.0 mi North 5.8 mph - N/A   Mostly Cloudy